• Processing (Info)

  • MPEC 2013-X27 : 2013 WM106

    The following Minor Planet Electronic Circular may be linked-to from your own Web pages, but must not otherwise be redistributed electronically.

    A form allowing access to any MPEC is at the bottom of this page.


    Read MPEC 2013-X26 Read MPEC 2013-X28


    M.P.E.C. 2013-X27                                Issued 2013 Dec. 5, 23:09 UT
    
         The Minor Planet Electronic Circulars contain information on unusual
             minor planets and routine data on comets.  They are published
       on behalf of Commission 20 of the International Astronomical Union by the
              Minor Planet Center, Smithsonian Astrophysical Observatory,
                              Cambridge, MA 02138, U.S.A.
    
                 Prepared using the Tamkin Foundation Computer Network
    
                                  MPC@CFA.HARVARD.EDU
                URL https://www.minorplanetcenter.net/    ISSN 1523-6714
    
                                      2013 WM106
    
    Observations:
         K13WA6M* C2013 11 27.35852 04 53 41.373+11 57 34.21         22.3 wLEX027F51
         K13WA6M  C2013 11 27.37376 04 53 39.788+11 57 33.64         22.1 wLEX027F51
         K13WA6M  C2013 11 27.38898 04 53 38.186+11 57 33.01         22.3 wLEX027F51
         K13WA6M  C2013 11 27.40430 04 53 36.556+11 57 32.59         22.2 wLEX027F51
         K13WA6M =C2013 11 28.34130 04 52 01.01 +11 56 56.4          21.8  tEX027568
         K13WA6M =C2013 11 28.34255 04 52 00.87 +11 56 56.4          21.9  tEX027568
         K13WA6M =C2013 11 28.34383 04 52 00.73 +11 56 56.4          22.4  tEX027568
         K13WA6M =C2013 11 28.34560 04 52 00.55 +11 56 56.2          22.5  tEX027568
         K13WA6M =C2013 11 28.34686 04 52 00.42 +11 56 56.3          22.3  tEX027568
         K13WA6M =C2013 11 28.34880 04 52 00.22 +11 56 56.2          22.1  tEX027568
         K13WA6M =C2013 12 04.44035 04 41 57.78 +11 55 28.4          22.1  tEX027568
         K13WA6M =C2013 12 04.44160 04 41 57.66 +11 55 28.3          21.7  tEX027568
         K13WA6M =C2013 12 04.44285 04 41 57.54 +11 55 28.3          22.1  tEX027568
    
    Observer details:
    568 Mauna Kea.  Observers R. Wainscoat, D. Woodworth.  Measurers P. Veres,
        R. Wainscoat.  3.6-m Canada-France-Hawaii Telescope + CCD.
    F51 Pan-STARRS 1, Haleakala.  Observers N. Primak, A. Schultz. T. Goggia,
        M. Willman.  Measurer PS1 Science Consortium.  1.8-m Ritchey-Chretien
        + CCD.
    
    Orbital elements:
    2013 WM106                                               Earth MOID = 0.0570 AU
    Epoch 2013 Nov. 4.0 TT = JDT 2456600.5                  MPC
    M  34.61608              (2000.0)            P               Q
    n   0.26320746     Peri.  168.67737     +0.66323976     +0.74596513
    a   2.4114074      Node   142.82458     -0.69422113     +0.64336609
    e   0.6356931      Incl.    5.73742     -0.27958906     +0.17209329
    P   3.74           H   19.3           G   0.15           U   7
    Residuals in seconds of arc
    131127 F51  0.2-  0.0     131128 568  0.0   0.0     131204 568  0.0   0.1+
    131127 F51  0.1+  0.0     131128 568  0.1-  0.0     131204 568  0.0   0.0
    131127 F51  0.1+  0.1-    131128 568  0.0   0.1-    131204 568  0.0   0.0
    131127 F51  0.0   0.1+    131128 568  0.0   0.0
    131128 568  0.1+  0.0     131128 568  0.0   0.0
    
    Ephemeris:
    2013 WM106               a,e,i = 2.41, 0.64, 6                   q = 0.8785
    Date    TT    R. A. (2000) Decl.     Delta      r     Elong.  Phase     V
    2013 11 05    05 30 24.1 +12 37 57   0.9940  1.8582   138.7    20.6    21.7
    ...
    2013 11 20    05 06 23.4 +12 05 37   1.0320  1.9838   158.3    10.6    21.5
    ...
    2013 11 28    04 52 35.6 +11 57 10   1.0753  2.0489   167.1     6.2    21.5
    ...
    2013 12 04    04 42 39.9 +11 55 27   1.1196  2.0968   169.7     4.8    21.6
    2013 12 05    04 41 04.9 +11 55 34   1.1280  2.1047   169.5     4.9    21.6
    2013 12 06    04 39 31.3 +11 55 48   1.1367  2.1126   169.2     5.0    21.6
    ...
    2013 12 12    04 30 46.4 +11 59 37   1.1946  2.1596   164.5     7.0    21.9
    ...
    2013 12 20    04 21 00.7 +12 11 01   1.2869  2.2209   155.7    10.5    22.2
    ...
    2014 01 04    04 09 19.8 +12 49 36   1.5008  2.3323   138.8    16.1    22.9
    
    A. U. Tomatic                (C) Copyright 2013 MPC           M.P.E.C. 2013-X27
    

    Read MPEC 2013-X26 Read MPEC 2013-X28


    MPEC number:

    Enter an MPEC number in one of the following forms:

    • 1997-B01 (the full form)
    • J97B01 (the packed version of the full form)
    • B01 (the abbreviated form)